Regional Weather Roundup
Issued by NWS

Home | Current Version | Previous Version | Graphics & Text | Print | Product List | Glossary Off
Versions: 1 2 3 4 5 6 7 8 9 10 11 12 13 14 15 16 17 18 19 20 21 22 23 24 25 26 27 28 29 30 31 32 33 34 35 36 37 38 39 40 41 42 43 44 45 46 47 48 49 50

000
ASUS43 KTOP 311659
RWRKS

WEATHER ROUNDUP FOR KANSAS
NATIONAL WEATHER SERVICE GOODLAND KS
1200 PM CDT TUE MAY 31 2016

NOTE:  "FAIR" INDICATES FEW OR NO CLOUDS BELOW 12,000 FEET WITH NO
SIGNIFICANT WEATHER AND/OR OBSTRUCTIONS TO VISIBILITY.

KSZ001>006-013>018-027>032-041>047-311800-
NORTHWEST KANSAS

CITY           SKY/WX    TMP DP  RH WIND       PRES   REMARKS
GOODLAND       SUNNY     65  48  54 NE14      30.09S
HAYS           PTSUNNY   68  54  60 N18       30.00S
HILL CITY      PTSUNNY   69  51  52 N15G23    30.04S
RUSSELL          N/A     67  59  75 N18       29.98R
$$

KSZ061>065-074>080-084>089-311800-
SOUTHWEST KANSAS

CITY           SKY/WX    TMP DP  RH WIND       PRES   REMARKS
DODGE CITY     MOSUNNY   68  59  73 N16       30.00R
ELKHART          N/A     66  55  67 NE8         N/A
GARDEN CITY    CLOUDY    67  57  70 N14       30.02R
GREAT BEND     CLOUDY    70  57  64 N14       29.97S
LIBERAL        CLOUDY    64  55  72 SE5       30.05S
$$

KSZ066>073-081>083-090>101-311800-
SOUTHEAST KANSAS

CITY           SKY/WX    TMP DP  RH WIND       PRES   REMARKS
CHANUTE        LGT RAIN  70  66  87 SE9       29.92F
COFFEYVILLE    LGT RAIN  71  68  90 E8        29.91F
HUTCHINSON     PTSUNNY   74  63  68 VRB5      29.95F
MEDICINE LODGE   N/A     75  56  51 N9        29.95R
NEWTON         CLOUDY    70  59  68 N10       29.99R
PARSONS        CLOUDY    71  68  90 CALM      29.93R
WICHITA INTL   MOSUNNY   75  63  66 N14       29.93S
WICHITA JABRA  CLOUDY    70  63  78 N10       29.94R
WINFIELD       SUNNY     74  65  73 NE8       29.94R
$$

KSZ007>012-019>026-033>040-048>060-102>105-311800-
NORTHEAST KANSAS

CITY           SKY/WX    TMP DP  RH WIND       PRES   REMARKS
CONCORDIA      PTSUNNY   71  60  68 NE6       29.97S
EMPORIA        LGT RAIN  67  62  84 N9        29.95F
LAWRENCE       CLOUDY    71  63  75 S6        29.95F
MANHATTAN      CLOUDY    72  59  63 NW3       29.96S
OLATHE IND     CLOUDY    73  63  70 SW5       29.96S
OLATHE EXE     PTSUNNY   72  64  76 SW7       29.96F
SALINA         PTSUNNY   70  62  76 NE6       29.97F
TOPEKA BILLARD   N/A     74  61  63 CALM      29.94F
TOPEKA FORBES  CLOUDY    73  62  68 VRB3      29.95S
$$




USA.gov is the U.S. government's official web portal to all federal, state and local government web resources and services.